User: anonymous   Login
Location: Newark
(3.3223°N, 76.2348°W)
Time: 22:15:49
(UTC+00:00)
Language:

AIST 2D - Orbit

View from above orbital plane
View from above orbital plane
View from above satellite
View from above satellite

Ground track
Ground track

The orbit data is extracted from the following two-line orbital elements,

1 41465U 16026B   20028.52249166  .00000908  00000-0  29555-4 0  9999
2 41465  97.1696 282.6423 0012796  42.7458  80.7512 15.34322387209813
Epoch (UTC): 28 January 2020 12:32:23
Eccentricity: 0.0012796
inclination: 97.1696°
perigee height: 454 km
apogee height: 471 km
right ascension of ascending node: 282.6423°
argument of perigee: 42.7458°
revolutions per day: 15.34322387
mean anomaly at epoch: 80.7512°
orbit number at epoch: 20981

The dashed part of the orbit path shows where the satellite is in the earth's shadow,  

DLR